Location: Quedlinburg
(51.7921°N, 11.1414°E)
Time: 13:32:42
(UTC+02:00)

RS-15 - Pass Details

Date: 11 March 2026
Orbit: 1893 x 2152 km, 64.8° (Epoch: 22 April)

Event Time Altitude Azimuth Distance (km) Brightness Sun altitude
Rises 20:51:41 0° 198° (SSW) 5,263 10.2 -24.5°
Reaches altitude 10° 20:54:57 10° 195° (SSW) 4,268 9.7 -25.0°
Maximum altitude 21:05:29 60° 119° (ESE) 2,138 7.8 -26.4°
Drops below altitude 10° 21:16:21 10° 44° (NE) 4,397 9.8 -27.8°
Sets 21:19:46 0° 41° (NE) 5,429 10.3 -28.2°
